Location: Peterborough
(44.3091°N, 78.3197°W)
Time: 03:10:21
(UTC-04:00)

Tiros 1 despin weight - Pass Details

Date: 26 March 2023
Orbit: 586 x 632 km, 48.2° (Epoch: 08 June)

Event Time Altitude Azimuth Distance (km) Brightness Sun altitude
Rises 01:15:10 0° 285° (WNW) 2,824 - -43.6°
Reaches altitude 10° 01:17:29 10° 290° (WNW) 1,928 - -43.6°
Maximum altitude 01:21:50 54° 8° (N) 729 - -43.6°
Drops below altitude 10° 01:26:14 10° 87° (E) 1,954 - -43.6°
Sets 01:28:35 0° 92° (E) 2,866 - -43.5°
